Hourly Data Report for September 25, 2017

All times are specified in Local Standard Time (LST). Add 1 hour to adjust for Daylight Saving Time where and when it is observed.

IQALUIT CLIMATE
NUNAVUT

63°44'50.000" N
68°32'40.000" W
33.50 m
2402592
71321
XFB

Download Data

Hourly Data (September 2017)
Hourly Data Report for September 25, 2017
Temp Definition
°C
Dew Point Temp Definition
°C
Rel Hum Definition
%
Wind Dir Definition
10's deg

Wind Spd Definition
km/h
Visibility Definition
km
Stn Press Definition
kPa
Hmdx Definition


Wind Chill Definition


Weather Definition


TIME
00:00 -2.8 -4.5 88 31 13   100.86   -7 LegendNANA
01:00 -1.7 -3.9 85 30 18   100.83   -7 LegendNANA
02:00 -1.9 -3.7 88 32 13   100.86   -6 LegendNANA
03:00 -0.9 -2.9 87 31 19   100.85   -6 LegendNANA
04:00 -0.9 -2.3 90 31 23   100.89   -7 LegendNANA
05:00 -1.0 -2.0 93 32 24   100.93   -7 LegendNANA
06:00 -0.6 -3.3 82 32 17   100.96   -6 LegendNANA
07:00 -0.6 -3.0 84 33 21   101.01   -6 LegendNANA
08:00 -0.7 -1.9 92 32 13   101.02   -5 LegendNANA
09:00 0.2 -3.1 78 33 28   101.00     LegendNANA
10:00 0.7 -3.2 75 32 26   100.99     LegendNANA
11:00 1.7 -3.1 70 33 23   100.98     LegendNANA
12:00 1.1 -3.5 72 32 24   100.98     LegendNANA
13:00 1.5 -3.3 70 32 22   100.97     LegendNANA
14:00 1.4 -3.3 71 33 24   100.98     LegendNANA
15:00 1.0 -2.9 75 34 20   101.00     LegendNANA
16:00 1.0 -3.7 71 31 20   101.00     LegendNANA
17:00 0.3 -3.8 74 32 16   101.02     LegendNANA
18:00 -0.8 -3.7 81 32 19   101.04   -6 LegendNANA
19:00 -1.4 -3.6 85 32 12   101.06   -5 LegendNANA
20:00 -1.7 -4.0 85 32 9   101.02   -5 LegendNANA
21:00 -1.7 -4.0 84 32 10   101.03   -5 LegendNANA
22:00 -1.9 -3.9 86 33 8   101.00   -5 LegendNANA
23:00 -2.3 -3.9 89 34 9   100.96   -6 LegendNANA

Notes on Data Quality.

Legend

  • E = Estimated
  • M = Missing
  • NA = Not Available
  • ‡ = Partner data that is not subject to review by the National Climate Archives
Date modified: